Home   Weather   Gaza   Past weeks
Flag for Palestinian Territories

Past Weather in Gaza, Gaza Strip, Palestinian Territories — December 2019

Now
73 °F

Sunny.


Feels Like: 77 °F
Forecast: 77 / 60 °F
Wind: 16 mph from North

Location: Ben Gurion International Airport

Current Time: May 30, 2020 at 7:17:55 pm

Latest Report: May 30, 2020 at 6:50 pm


Visibility: 10 mi

Pressure: 30.01 "Hg

Humidity: 50%

Dew Point: 54 °F

Location of GazaLocation

December 2019 Weather in Gaza — Graph

°F

High & Low Weather Summary for December 2019

 TemperatureHumidityPressure
High77 °F (Dec 20, 11:50 am)94% (Dec 2, 1:50 am)30.39 "Hg (Dec 2, 1:50 am)
Low43 °F (Dec 21, 5:50 am)14% (Dec 20, 11:50 am)29.77 "Hg (Dec 12, 10:50 am)
Average60 °F64%30.03 "Hg
* Reported Dec 1 12:20 am — Dec 31 11:50 pm, Gaza. Weather by CustomWeather, © 2020

Note: Actual official high and low records may vary slightly from our data, if they occured in-between our weather recording intervals... More about our weather records

Gaza Weather History for December 1, 2019

Scroll right to see more
 ConditionsComfort  
Time TempWeatherWind HumidityBarometerVisibility
12:20 am
Sun, Dec 1
57 °FClear.3 mph82%29.98 "Hg10 mi
12:50 am57 °FClear.3 mph82%29.98 "Hg10 mi
1:20 am57 °FClear.2 mph82%29.98 "Hg10 mi
1:50 am57 °FClear.3 mph82%29.98 "Hg10 mi
2:20 am55 °FClear.1 mph77%29.98 "Hg10 mi
2:50 am57 °FClear.5 mph82%29.98 "Hg10 mi
3:20 am55 °FPassing clouds.3 mph82%29.98 "HgN/A
3:50 am55 °FPassing clouds.3 mph82%29.98 "HgN/A
4:20 am54 °FPassing clouds.3 mph82%29.98 "HgN/A
4:50 am55 °FPassing clouds.3 mph77%29.98 "HgN/A
5:20 am54 °FPassing clouds.2 mph77%29.98 "HgN/A
5:50 am54 °FPassing clouds.3 mph82%29.98 "HgN/A
6:20 am55 °FPassing clouds.3 mph72%29.98 "HgN/A
6:50 am55 °FPassing clouds.3 mph72%29.98 "HgN/A
7:20 am57 °FPassing clouds.5 mph67%29.98 "HgN/A
7:50 am59 °FPassing clouds.2 mph68%29.98 "HgN/A
8:20 am61 °FPassing clouds.1 mph63%30.01 "HgN/A
8:50 am66 °FPassing clouds.3 mph52%30.01 "HgN/A
9:20 am68 °FPassing clouds.3 mph56%30.01 "HgN/A
9:50 am70 °FPassing clouds.2 mph57%30.01 "HgN/A
10:20 am72 °FPassing clouds.3 mph61%29.98 "HgN/A
10:50 am72 °FScattered clouds.8 mph61%29.98 "HgN/A
11:20 am72 °FScattered clouds.9 mph61%29.98 "HgN/A
11:50 am73 °FScattered clouds.10 mph57%29.95 "HgN/A
12:20 pm72 °FScattered clouds.9 mph57%29.95 "HgN/A
12:50 pm73 °FScattered clouds.13 mph53%29.95 "HgN/A
1:20 pm73 °FScattered clouds.10 mph61%29.95 "HgN/A
1:50 pm72 °FScattered clouds.12 mph65%29.95 "HgN/A
2:20 pm72 °FScattered clouds.13 mph65%29.95 "HgN/A
2:50 pm73 °FScattered clouds.10 mph61%29.95 "HgN/A
3:20 pm72 °FScattered clouds.13 mph65%29.95 "HgN/A
3:50 pm72 °FScattered clouds.10 mph57%29.95 "HgN/A
4:20 pm70 °FScattered clouds.10 mph64%29.98 "HgN/A
4:50 pm68 °FPassing clouds.8 mph69%29.98 "HgN/A
5:20 pm68 °FPassing clouds.7 mph69%29.98 "HgN/A
5:50 pm68 °FPassing clouds.5 mph69%29.98 "HgN/A
6:20 pm66 °FPassing clouds.2 mph73%29.98 "HgN/A
6:50 pm66 °FPassing clouds.2 mph73%29.98 "HgN/A
7:20 pm66 °FPassing clouds.6 mph73%29.98 "HgN/A
7:50 pm66 °FPassing clouds.6 mph73%29.98 "HgN/A
8:20 pm66 °FPassing clouds.6 mph73%29.98 "HgN/A
8:50 pm66 °FPassing clouds.7 mph68%29.98 "HgN/A
9:20 pm66 °FPassing clouds.8 mph68%29.98 "HgN/A
9:50 pm64 °FPassing clouds.9 mph73%29.98 "HgN/A
10:20 pm64 °FPassing clouds.9 mph78%29.98 "HgN/A
10:50 pm64 °FPassing clouds.7 mph78%29.98 "HgN/A
11:20 pm64 °FPassing clouds.6 mph78%29.98 "HgN/A
11:50 pm63 °FPassing clouds.7 mph83%29.98 "HgN/A
Weather by CustomWeather, © 2020

See weather overview

Advertising